Chesterfield, MO

8:38 AM CDT on September 28, 2016 (GMT -0500)
Spirit Of Saint Louis

Weather History for KSUS - June, 2013

Change the Weather History Date:

Thursday, June 27, 2013

  Actual Average Record
Temperature  
Mean Temperature 82 °F -  
Max Temperature 93 °F 84 °F 100 °F (2012)
Min Temperature 72 °F 62 °F 54 °F (2004)
Cooling Degree Days 18    
Growing Degree Days 32 (Base 50)    
Moisture  
Dew Point 70 °F    
Average Humidity 70    
Maximum Humidity 91    
Minimum Humidity 42    
Precipitation  
Precipitation 0.00 in - - ()
Sea Level Pressure  
Sea Level Pressure 29.84 in    
Wind  
Wind Speed 4 mph (West)    
Max Wind Speed 13 mph    
Max Gust Speed -    
Visibility 10 miles    
Events      
Averages and records for this station are not official NWS values.
T = Trace of Precipitation, MM = Missing Value Source: NWS Daily Summary

Daily Weather History Graph

Daily Weather History Graph

Search for Another Location

Airport or City:

Trip Planner

Search our weather history database for the weather conditions in past years. The results will help you decide how hot, cold, wet, or windy it might be!

Date:

Astronomy

Jun. 27, 2013 Rise Set
Actual Time 5:40 AM CDT 8:31 PM CDT
Civil Twilight 5:08 AM CDT 9:03 PM CDT
Nautical Twilight 4:28 AM CDT 9:43 PM CDT
Astronomical Twilight 3:42 AM CDT 10:28 PM CDT
Moon 11:32 PM CDT (6/27) 10:37 AM CDT (6/27)
Length of Visible Light 15h 54m
Length of Day
14h 51m
Waning Gibbous, 76% of the Moon is Illuminated
Jun 27
Waning Gibbous
Jun 29
Last Quarter
Jul 8
New
Jul 15
First Quarter
Jul 22
Full

Hourly Weather History & Observations

Time (CDT) Temp. Heat Index Dew Point Humidity Pressure Visibility Wind Dir Wind Speed Gust Speed Precip Events Conditions
12:54 AM 73.9 °F - 71.1 °F 91% 29.79 in 10.0 mi SW 3.5 mph - N/A   Clear
1:54 AM 75.0 °F - 70.0 °F 84% 29.80 in 10.0 mi West 3.5 mph - N/A   Clear
2:54 AM 73.9 °F - 69.1 °F 85% 29.81 in 10.0 mi Calm Calm - N/A   Clear
3:54 AM 72.0 °F - 69.1 °F 91% 29.82 in 10.0 mi Calm Calm - N/A   Clear
4:54 AM 73.0 °F - 68.0 °F 84% 29.84 in 10.0 mi Calm Calm - N/A   Clear
5:54 AM 73.0 °F - 66.9 °F 81% 29.85 in 10.0 mi Calm Calm - N/A   Scattered Clouds
6:54 AM 75.0 °F - 68.0 °F 79% 29.85 in 10.0 mi Calm Calm - N/A   Clear
7:54 AM 77.0 °F - 68.0 °F 74% 29.86 in 10.0 mi West 6.9 mph - N/A   Clear
8:54 AM 79.0 °F - 70.0 °F 74% 29.87 in 10.0 mi WSW 4.6 mph - N/A   Clear
9:54 AM 82.9 °F 88.0 °F 72.0 °F 69% 29.87 in 10.0 mi West 4.6 mph - N/A   Clear
10:54 AM 88.0 °F 93.8 °F 71.1 °F 57% 29.86 in 10.0 mi WNW 8.1 mph - N/A   Scattered Clouds
11:54 AM 90.0 °F 92.8 °F 66.9 °F 46% 29.88 in 10.0 mi WNW 10.4 mph - N/A   Clear
12:54 PM 91.0 °F 93.8 °F 66.0 °F 44% 29.86 in 10.0 mi WNW 9.2 mph - N/A   Clear
1:54 PM 93.0 °F 96.4 °F 66.9 °F 42% 29.86 in 10.0 mi WNW 11.5 mph - N/A   Scattered Clouds
2:54 PM 93.0 °F 96.4 °F 66.9 °F 42% 29.87 in 10.0 mi WNW 12.7 mph - N/A   Mostly Cloudy
3:54 PM 91.9 °F 95.9 °F 68.0 °F 45% 29.87 in 10.0 mi WNW 8.1 mph - N/A   Clear
4:54 PM 90.0 °F 92.8 °F 66.9 °F 46% 29.86 in 10.0 mi WNW 9.2 mph - N/A   Clear
5:54 PM 86.0 °F 92.2 °F 72.0 °F 63% 29.83 in 10.0 mi West 3.5 mph - N/A   Mostly Cloudy
6:54 PM 86.0 °F 93.8 °F 73.9 °F 67% 29.78 in 10.0 mi Calm Calm - N/A   Mostly Cloudy
7:54 PM 84.9 °F 90.7 °F 72.0 °F 65% 29.76 in 10.0 mi West 3.5 mph - N/A   Clear
8:54 PM 78.1 °F - 73.9 °F 87% 29.79 in 10.0 mi WSW 5.8 mph - N/A   Clear
9:54 PM 78.1 °F - 72.0 °F 81% 29.82 in 10.0 mi WSW 5.8 mph - N/A   Clear
10:54 PM 77.0 °F - 73.0 °F 88% 29.85 in 10.0 mi WSW 5.8 mph - N/A   Clear
11:54 PM 77.0 °F - 72.0 °F 84% 29.84 in 10.0 mi WSW 5.8 mph - N/A   Partly Cloudy